DW8722 Weather Reports


time (UTC)temp
F
wind
direction
speed
knots
gust
knots
rain 1hr
in
rain 24hr
in
rain mn
in
humidity
%
barometer
mb
20260508022052 62 144 0.0 0.0 0.00 0.00 0.00 78 1015.2
20260508015919 64 144 0.0 0.0 0.00 0.00 0.00 77 1015.3
20260508014906 64 151 0.0 2.6 0.00 0.00 0.00 76 1015.1
20260508013901 64 145 0.9 3.5 0.00 0.00 0.00 75 1015.1
20260508012918 65 148 0.9 4.3 0.00 0.00 0.00 74 1015.0
20260508011938 66 160 1.7 4.3 0.00 0.00 0.00 73 1015.0
20260508010912 66 156 0.9 5.2 0.00 0.00 0.00 71 1014.8
20260508005844 67 168 2.6 7.8 0.00 0.00 0.00 69 1014.8
20260508004900 68 178 3.5 7.8 0.00 0.00 0.00 67 1014.8
20260508003925 69 173 0.0 5.2 0.00 0.00 0.00 62 1014.8
20260508001747 70 164 0.0 0.0 0.00 0.00 0.00 59 1015.0
20260508000742 70 173 0.0 0.0 0.00 0.00 0.00 59 1014.8
20260507235734 70 277 0.0 0.0 0.00 0.00 0.00 59 1014.8
20260507233622 71 301 0.0 0.0 0.00 0.00 0.00 54 1014.9
20260507232611 71 0 0.0 0.0 0.00 0.00 0.00 54 1014.9
20260507231539 71 355 0.0 0.9 0.00 0.00 0.00 52 1014.9
20260507230510 71 322 0.0 0.9 0.00 0.00 0.00 53 1015.1
20260507225521 71 12 0.0 0.0 0.00 0.00 0.00 53 1015.2
20260507223338 71 309 0.0 0.9 0.00 0.00 0.00 52 1015.4
20260507222329 72 53 0.0 1.7 0.00 0.00 0.00 49 1015.3
20260507221353 72 17 0.0 2.6 0.00 0.00 0.00 49 1015.5
20260507220343 72 15 0.0 3.5 0.00 0.00 0.00 48 1015.4
20260507215351 73 38 0.0 0.0 0.00 0.00 0.00 47 1015.4
20260507213224 73 239 0.0 0.0 0.00 0.00 0.00 46 1015.6
20260507212226 74 329 0.9 5.2 0.00 0.00 0.00 45 1015.7
20260507211201 74 29 0.0 2.6 0.00 0.00 0.00 47 1015.6
20260507210209 73 236 0.0 1.7 0.00 0.00 0.00 48 1015.7
20260507205218 74 0 2.6 8.7 0.00 0.00 0.00 46 1015.8
20260507204218 74 26 0.0 3.5 0.00 0.00 0.00 46 1015.9
20260507202045 74 0 0.9 7.0 0.00 0.00 0.00 49 1016.2
20260507201030 73 291 2.6 8.7 0.00 0.00 0.00 52 1016.3
20260507200027 73 308 2.6 8.7 0.00 0.00 0.00 50 1016.5
20260507193850 73 296 0.0 7.8 0.00 0.00 0.00 49 1016.7
20260507192831 72 29 3.5 10.4 0.00 0.00 0.00 51 1016.9
20260507191818 72 22 1.7 10.4 0.00 0.00 0.00 52 1016.9
20260507190812 72 355 3.5 7.8 0.00 0.00 0.00 52 1017.0
20260507185740 71 24 1.7 7.0 0.00 0.00 0.00 52 1017.1
20260507184800 71 351 2.6 9.6 0.00 0.00 0.00 55 1017.2
20260507183805 71 310 1.7 9.6 0.00 0.00 0.00 56 1017.5
20260507182747 70 60 1.7 9.6 0.00 0.00 0.00 57 1017.6
20260507181734 69 290 2.6 8.7 0.00 0.00 0.00 61 1017.8
20260507180710 69 355 3.5 8.7 0.00 0.00 0.00 60 1018.0
20260507174613 69 327 1.7 7.8 0.00 0.00 0.00 58 1018.5
20260507173559 68 317 0.9 7.8 0.00 0.00 0.00 59 1018.8
20260507172535 68 341 1.7 7.0 0.00 0.00 0.00 56 1019.1
20260507171536 67 76 2.6 7.0 0.00 0.00 0.00 58 1019.3
20260507165331 67 305 2.6 8.7 0.00 0.00 0.00 62 1019.5
20260507164328 66 339 2.6 6.1 0.00 0.00 0.00 60 1019.5
20260507163332 66 5 1.7 6.1 0.00 0.00 0.00 63 1019.7
20260507162343 66 313 0.9 4.3 0.00 0.00 0.00 67 1019.8
20260507161348 65 16 0.9 5.2 0.00 0.00 0.00 68 1019.8
20260507155212 63 71 0.0 0.0 0.00 0.01 0.00 69 1019.9
20260507154155 63 17 0.9 5.2 0.00 0.01 0.00 71 1020.0
20260507153150 62 49 0.0 1.7 0.00 0.01 0.00 75 1020.2
20260507152159 61 36 0.0 0.0 0.00 0.01 0.00 74 1020.3
20260507151159 61 39 0.9 3.5 0.00 0.01 0.00 75 1020.3
20260507145110 61 42 0.9 3.5 0.00 0.01 0.00 78 1020.4
20260507144048 60 62 0.0 2.6 0.00 0.01 0.00 80 1020.6
20260507143055 59 24 0.9 3.5 0.00 0.01 0.00 83 1020.7
20260507142114 58 48 0.0 2.6 0.00 0.01 0.00 86 1020.8
20260507135953 56 5 0.0 2.6 0.00 0.01 0.00 91 1020.9
20260507134957 55 355 0.0 0.0 0.00 0.01 0.00 92 1020.9
20260507134000 55 23 0.0 1.7 0.00 0.01 0.00 92 1021.0
20260507133000 53 0 0.0 0.0 0.00 0.01 0.00 91 1021.0
20260507132018 52 342 0.0 0.0 0.00 0.01 0.00 92 1020.9
20260507130954 51 305 0.0 0.0 0.00 0.01 0.00 92 1020.9
20260507125956 51 355 0.0 0.0 0.00 0.01 0.00 92 1020.8
20260507124951 50 248 0.0 0.0 0.00 0.01 0.00 92 1020.7
20260507124013 50 109 0.0 0.0 0.00 0.01 0.00 92 1020.6
20260507122957 49 163 0.0 0.0 0.00 0.01 0.00 92 1020.6
20260507121952 49 155 0.0 0.0 0.00 0.01 0.00 92 1020.4
20260507115758 48 259 0.0 0.0 0.00 0.01 0.00 92 1020.2
20260507113538 48 257 0.0 0.0 0.00 0.01 0.00 92 1019.8
20260507112537 48 264 0.0 0.0 0.00 0.01 0.00 92 1019.6
20260507111548 48 216 0.0 0.0 0.00 0.01 0.00 92 1019.4
20260507110543 48 203 0.0 0.0 0.00 0.01 0.00 92 1019.0
20260507105551 49 202 0.0 0.0 0.00 0.01 0.00 92 1019.0
20260507103434 49 327 0.0 0.0 0.00 0.01 0.00 92 1018.7
20260507102405 49 327 0.0 0.0 0.00 0.01 0.00 92 1018.4
20260507101410 49 327 0.0 0.0 0.00 0.01 0.00 92 1018.3
20260507095238 49 326 0.0 0.0 0.00 0.01 0.00 92 1018.4
20260507094219 50 326 0.0 0.0 0.00 0.01 0.00 92 1018.4
20260507093244 50 326 0.0 0.0 0.00 0.01 0.00 92 1018.4
20260507092242 50 326 0.0 0.0 0.00 0.01 0.00 92 1018.2
20260507091226 50 326 0.0 0.0 0.00 0.01 0.00 92 1018.2
20260507090225 50 326 0.0 0.0 0.00 0.01 0.00 92 1018.3
20260507085222 50 344 0.0 0.0 0.00 0.01 0.00 92 1018.3
20260507084203 51 344 0.0 0.0 0.00 0.01 0.00 91 1018.0
20260507083200 51 344 0.0 0.0 0.00 0.01 0.00 91 1018.0
20260507082208 51 344 0.0 1.7 0.00 0.01 0.00 91 1017.8
20260507081150 51 344 0.0 0.0 0.00 0.01 0.00 91 1017.8
20260507080145 51 345 0.0 0.0 0.00 0.01 0.00 91 1017.8
20260507075155 51 336 0.0 1.7 0.00 0.01 0.00 91 1018.0
20260507074211 51 327 0.0 1.7 0.00 0.01 0.00 91 1018.1
20260507072054 52 327 0.0 0.0 0.00 0.01 0.00 90 1018.2
20260507065949 52 20 0.0 0.0 0.00 0.01 0.00 90 1018.0
20260507065011 52 22 0.0 0.0 0.00 0.01 0.00 90 1018.1
20260507064024 52 22 0.0 1.7 0.00 0.01 0.00 89 1017.9
20260507063014 52 54 0.0 0.0 0.00 0.01 0.00 88 1017.7
20260507062034 53 54 0.0 0.0 0.00 0.01 0.00 88 1017.5
20260507061055 53 55 0.0 0.0 0.00 0.01 0.00 88 1017.4
20260507060048 53 67 0.0 2.6 0.00 0.01 0.00 87 1017.4
20260507053850 54 38 0.0 0.9 0.00 0.01 0.00 87 1017.7
20260507052902 55 29 0.0 2.6 0.00 0.01 0.00 87 1017.7
20260507051830 55 42 0.0 1.7 0.00 0.01 0.00 86 1017.8
20260507050844 55 48 0.0 1.7 0.00 0.01 0.00 86 1017.7
20260507045833 56 36 0.9 3.5 0.00 0.01 0.01 85 1017.8
20260507044824 56 24 0.0 3.5 0.00 0.01 0.01 85 1017.8
20260507043844 57 34 0.9 5.2 0.00 0.01 0.01 85 1018.0
20260507042905 57 11 0.9 5.2 0.00 0.01 0.01 85 1017.9
20260507041839 57 10 0.9 4.3 0.00 0.01 0.01 85 1018.0
20260507034624 57 50 1.7 6.1 0.00 0.01 0.01 85 1018.0
20260507033633 57 355 1.7 6.1 0.00 0.01 0.01 85 1017.9
20260507032613 57 346 0.9 7.0 0.00 0.01 0.01 84 1017.9
20260507031605 57 0 2.6 7.0 0.00 0.01 0.01 84 1017.7
20260507030617 57 5 3.5 7.0 0.00 0.01 0.01 84 1017.6
20260507025613 57 339 2.6 7.0 0.00 0.01 0.01 84 1017.5
20260507024614 57 32 2.6 7.0 0.00 0.01 0.01 84 1017.3
20260507022453 58 27 3.5 7.8 0.00 0.01 0.01 84 1016.9